Weather History for Dryden, TX

Change the Weather History Date:

Thursday, June 13, 2013

  Actual Average (KFST) Record (KFST)
Temperature  
Mean Temperature 83 °F -  
Max Temperature 93 °F 92 °F 104 °F (2001)
Min Temperature 73 °F 66 °F 60 °F (1999)
Cooling Degree Days 18    
Growing Degree Days 33 (Base 50)    
Moisture  
Dew Point 67 °F    
Average Humidity 61    
Maximum Humidity 82    
Minimum Humidity 37    
Precipitation  
Precipitation 0.14 in - - ()
Sea Level Pressure  
Sea Level Pressure 29.88 in    
Wind  
Wind Speed 14 mph (ESE)    
Max Wind Speed 20 mph    
Max Gust Speed 36 mph    
Averages and records for this station are not official NWS values.
T = Trace of Precipitation, MM = Missing Value Source: NWS Daily Summary

Daily Weather History Graph

Daily Weather History Graph

Search for Another Location

Airport:

Trip Planner

Search our weather history database for the weather conditions in past years. The results will help you decide how hot, cold, wet, or windy it might be!

Date:

Astronomy

Jun. 13, 2013 Rise Set
Actual Time 6:47 AM CDT 8:51 PM CDT
Civil Twilight 6:19 AM CDT 9:18 PM CDT
Nautical Twilight 5:46 AM CDT 9:51 PM CDT
Astronomical Twilight 5:10 AM CDT 10:27 PM CDT
Moon 11:09 AM CDT (6/13) No Moon Set
Length of Visible Light 14h 58m
Length of Day
14h 03m
Waxing Crescent, 22% of the Moon is Illuminated
Jun 13
Waxing Crescent
Jun 16
First Quarter
Jun 23
Full
Jun 29
Last Quarter
Jul 8
New

Hourly Weather History & Observations

Time (CDT) Temp. Heat Index Dew Point Humidity Pressure Visibility Wind Dir Wind Speed Gust Speed Precip Events Conditions
12:53 AM 82.9 °F 85.0 °F 66.0 °F 56% 29.87 in - East 16.1 mph 23.0 mph N/A   Unknown
1:53 AM 82.0 °F 84.5 °F 66.9 °F 60% 29.87 in - East 17.3 mph 24.2 mph N/A   Unknown
2:53 AM 80.1 °F 82.3 °F 66.9 °F 64% 29.87 in - East 11.5 mph - N/A   Unknown
3:53 AM 79.0 °F - 68.0 °F 69% 29.87 in - East 12.7 mph 21.9 mph N/A   Unknown
4:53 AM 79.0 °F - 68.0 °F 69% 29.88 in - SE 11.5 mph - N/A   Unknown
5:53 AM 78.1 °F - 66.9 °F 68% 29.89 in - East 9.2 mph - N/A   Unknown
6:53 AM 78.1 °F - 68.0 °F 71% 29.90 in - East 10.4 mph - N/A   Unknown
7:53 AM 78.1 °F - 69.1 °F 74% 29.92 in - East 11.5 mph - N/A   Unknown
8:53 AM 81.0 °F 84.1 °F 69.1 °F 67% 29.92 in - ESE 15.0 mph 21.9 mph N/A   Unknown
9:53 AM 84.0 °F 87.8 °F 69.1 °F 61% 29.93 in - East 13.8 mph 20.7 mph N/A   Unknown
10:53 AM 86.0 °F 89.4 °F 68.0 °F 55% 29.92 in - East 12.7 mph - N/A   Unknown
11:53 AM 87.1 °F 90.6 °F 68.0 °F 53% 29.93 in - ESE 15.0 mph 20.7 mph N/A   Unknown
12:53 PM 89.1 °F 91.3 °F 66.0 °F 46% 29.92 in - East 15.0 mph 23.0 mph N/A   Unknown
1:53 PM 89.1 °F 91.3 °F 66.0 °F 46% 29.90 in - East 13.8 mph 21.9 mph N/A   Unknown
2:53 PM 88.0 °F 89.6 °F 64.9 °F 46% 29.86 in - East 15.0 mph 21.9 mph N/A   Unknown
3:53 PM 90.0 °F 91.3 °F 64.0 °F 42% 29.84 in - ESE 12.7 mph 23.0 mph N/A   Unknown
4:53 PM 93.0 °F 94.2 °F 63.0 °F 37% 29.82 in - ESE 15.0 mph 35.7 mph N/A   Unknown
5:53 PM 91.0 °F 92.6 °F 64.0 °F 41% 29.80 in - ESE 16.1 mph 24.2 mph N/A   Unknown
6:53 PM 90.0 °F 91.7 °F 64.9 °F 43% 29.80 in - ESE 16.1 mph 19.6 mph N/A   Unknown
7:53 PM 73.9 °F - 66.9 °F 79% 29.87 in - ESE 19.6 mph 33.4 mph 0.07 in   Unknown
8:53 PM 75.9 °F - 70.0 °F 82% 29.89 in - East 6.9 mph - 0.05 in   Unknown
9:53 PM 75.9 °F - 69.1 °F 79% 29.89 in - ESE 11.5 mph - 0.01 in   Unknown
10:53 PM 75.9 °F - 69.1 °F 79% 29.91 in - ESE 8.1 mph - N/A   Unknown
11:53 PM 75.9 °F - 70.0 °F 82% 29.89 in - East 9.2 mph - 0.01 in   Unknown